Terug naar catalogus

STARLINK-37593

ActiefCommunicatieVLEO
NORAD 69355·PAYLOAD·🇺🇸 United States

Gelanceerd Jun 4, 2026 vanaf Cape Canaveral Space Force Station

Loading…

Volgende Passages (komende 24 uur)

TLE

VersSource: CelesTrak SupGP

Epoch: Sep 14, 2026, 21:30 UTC

1 69355C 26123C   26257.89631944 -.00049123  00000+0 -14509-2 0  2576
2 69355  53.1591 168.1005 0001272  93.8420  38.3030 15.34423860    17

Volg STARLINK-37593 in realtime met AllMySat

Download on the App Store